Flag for U.S.A. Weather past 2 weeks in Bentonville, Arkansas, U.S.A.

Now
81 °F

Partly sunny.


Feels Like: 82 °F
Forecast: 62 / 82 °F
Wind: No wind

Location: Bentonville Weather Observing Station

Current Time: Sep 19, 2014 at 2:53:55 PM

Latest Report: Sep 19, 2014 at 2:15 PM


Visibility: 10 mi

Pressure: 30.04 "Hg

Humidity: 58%

Dew point: 64 °F

Location of BentonvilleLocation

Historic Weather in Bentonville — Graph

°F

Bentonville temperature yesterday

Maximum temperature yesterday: 79 °F (at 2:35 PM)
Minimum temperature yesterday: 63 °F (at 8:15 AM)
Average temperature yesterday: 69 °F

Past Weeks' High & Low Weather Summary

 TemperatureHumidityPressure
High91 °F (Sep 4, 2:35 PM)94% (Sep 6, 3:15 AM)30.36 "Hg (Sep 6, 3:15 AM)
Low48 °F (Sep 13, 5:35 AM)44% (Sep 5, 3:15 PM)29.76 "Hg (Sep 10, 4:55 AM)
Average70 °F77%30.09 "Hg
* Reported Sep 4 1:35 PM — Sep 19 1:35 PM, Bentonville, Weather by CustomWeather, © 2014

Note: Actual official high and low records may vary slightly from our data, if they occured in-between our weather recording intervals... More about our weather records

Advertising

Bentonville weather history for previous 24 hours

 ConditionsComfort  
Time TempWeatherWind HumidityBarometerVisibility
1:35 PM
Sep 19
81 °FPassing clouds.5 mph62%30.06 "Hg10 mi
12:55 PM79 °FPassing clouds.3 mph61%30.07 "Hg10 mi
12:35 PM79 °FPassing clouds.3 mph65%30.07 "Hg10 mi
12:15 PM77 °FPassing clouds.3 mph69%30.07 "Hg10 mi
11:55 AM75 °FMostly cloudy.No wind74%30.07 "Hg10 mi
11:35 AM73 °FMostly cloudy.No wind74%30.07 "Hg10 mi
11:15 AM73 °FBroken clouds.3 mph74%30.07 "Hg9 mi
10:55 AM72 °FOvercast.5 mph78%30.07 "Hg9 mi
10:35 AM70 °FPartly sunny.No wind83%30.07 "Hg7 mi
10:15 AM68 °FLow clouds.3 mph83%30.07 "Hg7 mi
9:55 AM68 °FLow clouds.6 mph83%30.07 "Hg7 mi
9:35 AM66 °FLow clouds.6 mph88%30.07 "Hg5 mi
9:15 AM66 °FMostly cloudy.6 mph88%30.07 "Hg5 mi
8:55 AM66 °FMostly cloudy.6 mph88%30.06 "Hg5 mi
8:35 AM64 °FPartly sunny.6 mph94%30.05 "Hg5 mi
8:15 AM64 °FPassing clouds.6 mph88%30.05 "Hg6 mi
7:55 AM64 °FPassing clouds.3 mph88%30.05 "Hg5 mi
7:35 AM64 °FPassing clouds.3 mph88%30.04 "Hg5 mi
7:15 AM64 °FLow clouds.6 mph88%30.04 "Hg5 mi
6:55 AM64 °FLow clouds.5 mph88%30.03 "Hg9 mi
6:35 AM63 °FPassing clouds.5 mph94%30.04 "Hg10 mi
6:15 AM63 °FClear.6 mph94%30.03 "Hg10 mi
5:55 AM63 °FClear.5 mph94%30.03 "Hg10 mi
5:35 AM63 °FClear.6 mph94%30.02 "Hg10 mi
5:15 AM63 °FClear.6 mph94%30.02 "Hg10 mi
4:55 AM63 °FClear.5 mph94%30.02 "Hg10 mi
4:35 AM64 °FClear.5 mph88%30.02 "Hg10 mi
4:15 AM64 °FPassing clouds.3 mph88%30.02 "Hg10 mi
3:55 AM64 °FOvercast.3 mph88%30.02 "Hg10 mi
3:35 AM64 °FOvercast.6 mph88%30.03 "Hg10 mi
3:15 AM64 °FOvercast.7 mph88%30.03 "Hg10 mi
2:55 AM66 °FOvercast.7 mph83%30.03 "Hg10 mi
2:35 AM64 °FOvercast.6 mph88%30.03 "Hg10 mi
2:15 AM66 °FOvercast.6 mph83%30.04 "Hg10 mi
1:55 AM66 °FOvercast.8 mph83%30.03 "Hg10 mi
1:35 AM66 °FOvercast.8 mph83%30.03 "Hg10 mi
12:55 AM64 °FPassing clouds.12 mph88%30.04 "Hg10 mi
12:35 AM64 °FPassing clouds.8 mph88%30.04 "Hg10 mi
12:15 AM64 °FMostly cloudy.12 mph88%30.04 "Hg10 mi
11:55 PM
Sep 18
64 °FPassing clouds.13 mph88%30.04 "Hg10 mi
11:35 PM64 °FPassing clouds.12 mph88%30.03 "Hg10 mi
11:15 PM64 °FClear.9 mph88%30.03 "Hg10 mi
10:55 PM64 °FClear.9 mph88%30.03 "Hg10 mi
10:35 PM64 °FClear.10 mph88%30.03 "Hg10 mi
10:15 PM66 °FClear.7 mph83%30.03 "Hg10 mi
9:55 PM66 °FClear.8 mph88%30.02 "Hg10 mi
9:35 PM66 °FClear.9 mph88%30.01 "Hg10 mi
9:15 PM68 °FClear.10 mph83%30.01 "Hg10 mi
8:55 PM68 °FClear.10 mph83%30.00 "Hg10 mi
8:35 PM70 °FClear.10 mph78%29.99 "Hg10 mi
8:15 PM70 °FSunny.7 mph78%29.99 "Hg10 mi
7:55 PM72 °FSunny.8 mph78%29.98 "Hg10 mi
7:35 PM72 °FSunny.9 mph78%29.97 "Hg5 mi
6:55 PM73 °FSunny.13 mph69%29.97 "Hg10 mi
6:35 PM75 °FSunny.12 mph65%29.97 "Hg10 mi
5:55 PM75 °FSunny.10 mph69%29.96 "Hg10 mi
5:35 PM77 °FSunny.9 mph65%29.96 "Hg10 mi
5:15 PM77 °FSunny.7 mph65%29.96 "Hg10 mi
4:55 PM77 °FPassing clouds.10 mph65%29.96 "Hg10 mi
4:35 PM75 °FBroken clouds.7 mph69%29.96 "Hg10 mi
4:15 PM77 °FPartly sunny.12 mph61%29.97 "Hg10 mi
3:55 PM79 °FMore clouds than sun.10 mph58%29.97 "Hg10 mi
3:35 PM79 °FScattered clouds.12 mph61%29.97 "Hg5 mi
3:15 PM79 °FSunny.9 mph65%29.97 "Hg10 mi
2:55 PM77 °FSunny.8 mph65%29.98 "Hg10 mi
2:35 PM79 °FSunny.10 mph61%29.98 "Hg10 mi
2:15 PM75 °FSunny.10 mph69%29.99 "Hg10 mi
Weather by CustomWeather, © 2014

See weather overviewHow to use our weather pages